When you browse on this site, cookies collect data to enhance your experience and personalize the content and advertising you see.
Visit our Privacy Policy to learn more. By continuing to use the site, you agree to this use of cookies and data.
  • în România
  • Lista ţărilor
  • Pe 7 zile
  • Temperatura apei
  • Meteo pe hartă
  • Widget-uri
  • user-avatar
    Intrare

    Meteo pe oră la Moyamba

    Astăzi, 31 Martie, Marţi

    Timp Temperatura Precipitaţii Vânt Presiune Umiditate
    00:00 +28°C° 0 mm 1 m/s 750 mmHg 75%
    01:00 +25°C° 0 mm 0 m/s 750 mmHg 77%
    02:00 +25°C° 0 mm 0 m/s 749 mmHg 80%
    03:00 +25°C° 0 mm 0 m/s 750 mmHg 80%
    04:00 +25°C° 0 mm 0 m/s 750 mmHg 81%
    05:00 +25°C° 0 mm 0 m/s 750 mmHg 83%
    06:00 +26°C° 0 mm 0 m/s 750 mmHg 77%
    07:00 +29°C° 0 mm 1 m/s 751 mmHg 72%
    08:00 +30°C° 0 mm 1 m/s 751 mmHg 67%
    09:00 +32°C° 0 mm 1 m/s 751 mmHg 58%
    10:00 +35°C° 0 mm 1 m/s 751 mmHg 48%
    11:00 +39°C° 0 mm 1 m/s 751 mmHg 39%
    12:00 +40°C° 0 mm 1 m/s 750 mmHg 36%
    13:00 +42°C° 0 mm 1 m/s 750 mmHg 32%
    14:00 +40°C° 0 mm 0 m/s 749 mmHg 29%
    15:00 +41°C° 0 mm 1 m/s 749 mmHg 33%
    16:00 +39°C° 0 mm 2 m/s 749 mmHg 37%
    17:00 +37°C° 0 mm 2 m/s 748 mmHg 41%
    18:00 +35°C° 0 mm 2 m/s 749 mmHg 49%
    19:00 +32°C° 0 mm 2 m/s 749 mmHg 57%
    20:00 +29°C° 0 mm 2 m/s 750 mmHg 65%
    21:00 +29°C° 0 mm 2 m/s 750 mmHg 69%
    22:00 +29°C° 0 mm 1 m/s 750 mmHg 73%
    23:00 +28°C° 0 mm 1 m/s 751 mmHg 76%

    Mâine, 1 Aprilie, Miercuri

    Timp Temperatura Precipitaţii Vânt Presiune Umiditate
    00:00 +28°C° 0 mm 1 m/s 750 mmHg 79%
    01:00 +28°C° 0 mm 1 m/s 750 mmHg 81%
    02:00 +25°C° 0 mm 0 m/s 750 mmHg 84%
    03:00 +25°C° 0 mm 0 m/s 751 mmHg 85%
    04:00 +25°C° 0 mm 0 m/s 751 mmHg 86%
    05:00 +25°C° 0 mm 0 m/s 751 mmHg 87%
    06:00 +27°C° 0 mm 0 m/s 752 mmHg 80%
    07:00 +30°C° 0 mm 1 m/s 752 mmHg 72%
    08:00 +32°C° 0 mm 1 m/s 753 mmHg 65%
    09:00 +33°C° 0 mm 1 m/s 752 mmHg 59%
    10:00 +35°C° 0 mm 1 m/s 752 mmHg 53%
    11:00 +37°C° 0 mm 1 m/s 752 mmHg 47%
    12:00 +37°C° 0 mm 1 m/s 751 mmHg 46%
    13:00 +37°C° 0 mm 1 m/s 750 mmHg 46%
    14:00 +37°C° 0 mm 1 m/s 750 mmHg 46%
    15:00 +37°C° 0 mm 2 m/s 750 mmHg 48%
    16:00 +36°C° 0 mm 2 m/s 749 mmHg 51%
    17:00 +36°C° 0 mm 3 m/s 749 mmHg 53%
    18:00 +34°C° 0 mm 2 m/s 750 mmHg 60%
    19:00 +31°C° 0 mm 2 m/s 750 mmHg 67%
    20:00 +30°C° 0 mm 2 m/s 751 mmHg 73%
    21:00 +29°C° 0 mm 1 m/s 751 mmHg 76%
    22:00 +29°C° 0 mm 1 m/s 752 mmHg 78%
    23:00 +29°C° 0 mm 1 m/s 752 mmHg 80%

    Poimâine, 2 Aprilie, Joi

    Timp Temperatura Precipitaţii Vânt Presiune Umiditate
    00:00 +28°C° 0 mm 1 m/s 752 mmHg 83%
    01:00 +28°C° 0 mm 1 m/s 751 mmHg 85%
    02:00 +26°C° 0 mm 0 m/s 751 mmHg 87%
    03:00 +25°C° 0 mm 0 m/s 751 mmHg 88%
    04:00 +25°C° 0 mm 0 m/s 751 mmHg 90%
    05:00 +25°C° 0 mm 0 m/s 751 mmHg 91%
    06:00 +27°C° 0 mm 0 m/s 752 mmHg 83%
    07:00 +28°C° 0 mm 0 m/s 752 mmHg 75%
    08:00 +32°C° 0 mm 1 m/s 753 mmHg 68%
    09:00 +33°C° 0 mm 1 m/s 753 mmHg 63%
    10:00 +34°C° 0 mm 1 m/s 753 mmHg 57%
    11:00 +35°C° 0 mm 1 m/s 752 mmHg 52%
    12:00 +36°C° 0 mm 1 m/s 752 mmHg 51%
    13:00 +37°C° 0 mm 2 m/s 751 mmHg 50%
    14:00 +37°C° 0 mm 2 m/s 750 mmHg 49%
    15:00 +36°C° 0 mm 2 m/s 750 mmHg 52%
    16:00 +36°C° 0 mm 2 m/s 750 mmHg 54%
    17:00 +35°C° 0 mm 2 m/s 750 mmHg 57%
    18:00 +32°C° 0 mm 2 m/s 750 mmHg 64%
    19:00 +31°C° 0 mm 2 m/s 751 mmHg 72%
    20:00 +29°C° 0 mm 2 m/s 751 mmHg 80%
    21:00 +29°C° 0.1 mm 1 m/s 751 mmHg 82%
    22:00 +29°C° 0.1 mm 1 m/s 752 mmHg 85%
    23:00 +26°C° 0.1 mm 0 m/s 752 mmHg 87%

    3 Aprilie, Vineri

    Timp Temperatura Precipitaţii Vânt Presiune Umiditate
    00:00 +28°C° 0 mm 1 m/s 751 mmHg 88%
    01:00 +28°C° 0 mm 1 m/s 751 mmHg 89%
    02:00 +28°C° 0 mm 1 m/s 750 mmHg 91%
    03:00 +27°C° 0 mm 1 m/s 750 mmHg 92%
    04:00 +27°C° 0 mm 1 m/s 750 mmHg 93%
    05:00 +27°C° 0 mm 1 m/s 750 mmHg 94%
    06:00 +27°C° 0 mm 0 m/s 751 mmHg 85%
    07:00 +28°C° 0 mm 0 m/s 751 mmHg 77%
    08:00 +30°C° 0 mm 0 m/s 752 mmHg 68%
    09:00 +33°C° 0 mm 1 m/s 751 mmHg 63%
    10:00 +34°C° 0 mm 1 m/s 751 mmHg 59%
    11:00 +36°C° 0 mm 2 m/s 751 mmHg 54%
    12:00 +36°C° 0 mm 2 m/s 750 mmHg 55%
    13:00 +35°C° 0 mm 2 m/s 750 mmHg 56%
    14:00 +35°C° 0 mm 2 m/s 749 mmHg 57%
    15:00 +34°C° 0 mm 2 m/s 749 mmHg 60%
    16:00 +34°C° 0 mm 2 m/s 749 mmHg 62%
    17:00 +32°C° 0 mm 2 m/s 748 mmHg 64%
    18:00 +31°C° 0 mm 2 m/s 749 mmHg 68%
    19:00 +30°C° 0 mm 2 m/s 750 mmHg 73%
    20:00 +29°C° 0 mm 2 m/s 750 mmHg 77%
    21:00 +29°C° 0 mm 1 m/s 750 mmHg 79%
    22:00 +28°C° 0 mm 1 m/s 751 mmHg 82%
    23:00 +28°C° 0 mm 1 m/s 751 mmHg 85%

    4 Aprilie, Sâmbătă

    Timp Temperatura Precipitaţii Vânt Presiune Umiditate
    00:00 +26°C° 0 mm 0 m/s 750 mmHg 87%
    01:00 +26°C° 0 mm 0 m/s 750 mmHg 88%
    02:00 +25°C° 0 mm 0 m/s 750 mmHg 89%
    03:00 +25°C° 0 mm 0 m/s 750 mmHg 90%
    04:00 +25°C° 0 mm 0 m/s 750 mmHg 91%
    05:00 +25°C° 0 mm 0 m/s 750 mmHg 92%
    06:00 +28°C° 0 mm 1 m/s 750 mmHg 84%
    07:00 +30°C° 0 mm 1 m/s 751 mmHg 76%
    08:00 +32°C° 0 mm 1 m/s 752 mmHg 68%
    09:00 +33°C° 0 mm 1 m/s 751 mmHg 62%
    10:00 +35°C° 0 mm 1 m/s 751 mmHg 55%
    11:00 +37°C° 0 mm 1 m/s 751 mmHg 49%
    12:00 +36°C° 0.4 mm 1 m/s 750 mmHg 51%
    13:00 +36°C° 0.4 mm 2 m/s 750 mmHg 54%
    14:00 +35°C° 0.4 mm 2 m/s 749 mmHg 57%
    15:00 +35°C° 0.7 mm 2 m/s 749 mmHg 58%
    16:00 +35°C° 0.7 mm 2 m/s 749 mmHg 60%
    17:00 +34°C° 0.7 mm 3 m/s 749 mmHg 61%
    18:00 +32°C° 0 mm 2 m/s 749 mmHg 68%
    19:00 +31°C° 0 mm 2 m/s 750 mmHg 74%
    20:00 +29°C° 0 mm 2 m/s 751 mmHg 80%
    21:00 +29°C° 0 mm 1 m/s 751 mmHg 82%
    22:00 +29°C° 0 mm 1 m/s 751 mmHg 85%
    23:00 +26°C° 0 mm 0 m/s 751 mmHg 87%

    5 Aprilie, Duminică

    Timp Temperatura Precipitaţii Vânt Presiune Umiditate
    00:00 +26°C° 0 mm 0 m/s 751 mmHg 88%
    01:00 +26°C° 0 mm 0 m/s 751 mmHg 90%
    02:00 +26°C° 0 mm 0 m/s 750 mmHg 91%
    03:00 +25°C° 0 mm 0 m/s 750 mmHg 92%
    04:00 +25°C° 0 mm 0 m/s 750 mmHg 92%
    05:00 +25°C° 0 mm 0 m/s 750 mmHg 93%
    06:00 +27°C° 0 mm 0 m/s 751 mmHg 85%
    07:00 +30°C° 0 mm 1 m/s 752 mmHg 76%
    08:00 +32°C° 0 mm 1 m/s 752 mmHg 68%
    09:00 +34°C° 0 mm 1 m/s 752 mmHg 61%
    10:00 +36°C° 0 mm 1 m/s 752 mmHg 53%
    11:00 +36°C° 0 mm 0 m/s 751 mmHg 46%
    12:00 +39°C° 0 mm 1 m/s 751 mmHg 47%
    13:00 +37°C° 0 mm 1 m/s 750 mmHg 47%
    14:00 +38°C° 0 mm 2 m/s 749 mmHg 48%
    15:00 +37°C° 0.2 mm 2 m/s 749 mmHg 51%
    16:00 +36°C° 0.2 mm 3 m/s 749 mmHg 55%
    17:00 +35°C° 0.2 mm 3 m/s 749 mmHg 59%
    18:00 +33°C° 0.2 mm 3 m/s 749 mmHg 66%
    19:00 +31°C° 0.2 mm 2 m/s 750 mmHg 73%
    20:00 +29°C° 0.2 mm 2 m/s 750 mmHg 80%
    21:00 +29°C° 0.2 mm 2 m/s 751 mmHg 83%
    22:00 +29°C° 0.2 mm 1 m/s 751 mmHg 85%
    23:00 +26°C° 0.2 mm 0 m/s 751 mmHg 87%
    Arată mai mult